パンスターズ彗星

C/2017 K1 ( PanSTARRS )

English version
Home page
Updated on May 21, 2018

---------------------------------------------------------------------

・ プロフィール

発見日 2017年5月21日
発見光度 20.3等
発見者 Pan-STARRS 1 telescope (Haleakala)

・ 写真集

・ 軌道要素

Epoch 2018 Mar. 23.0 TT = JDT 2458200.5
T 2018 Mar. 14.10600 TT                                 MPCW
q   7.2858354            (2000.0)            P               Q
z  -0.0003425      Peri.    4.15510     -0.74386937     -0.59033145
 +/-0.0000047      Node   225.64189     -0.62511387     +0.44874102
e   1.0024952      Incl.  154.00999     -0.23641280     +0.67092494
From 35 observations 2017 May 21-2018 Mar. 27, mean residual 0".4.

・ 光度変化

        m1 = 6.5 + 5 logΔ + 10.0 log r

---------------------------------------------------------------------

軌道要素はM.P.E.C. 2018-F152に掲載されたものです。
光度グラフはComet for Windowsで作成したものです。

---------------------------------------------------------------------

Copyright(C) Seiichi Yoshida (comet@aerith.net). All rights reserved.